PAL3858 RPVR-RPLL

Flight info

Callsign PAL3858
Flight time 0h 39m
Altitude 26000
Route MINOR3A MINOR B473 LAIYA LAIYA5R
Aircraft B738/M-SDE2E3FGHIRWXY/LB1

Departure

Time 2026-04-22 08:45
Airport Roxas Airport (RPVR)

Arrival

Time 2026-04-22 09:25
Airport Ninoy Aquino International Airport (RPLL)
Time Latitude Longitude Altitude Speed Heading
2026-04-22 08:13 11.60083 122.74934 21 ft 0 kts 265°
2026-04-22 08:40 11.60083 122.74931 21 ft 0 kts 265°
2026-04-22 08:41 11.60085 122.74928 21 ft 1 kts 311°
2026-04-22 08:41 11.60090 122.74929 21 ft 0 kts 37°
2026-04-22 08:41 11.60090 122.74943 21 ft 2 kts 92°
2026-04-22 08:41 11.60089 122.74976 21 ft 6 kts 91°
2026-04-22 08:42 11.60087 122.75043 21 ft 11 kts 108°
2026-04-22 08:42 11.60017 122.75113 21 ft 16 kts 144°
2026-04-22 08:42 11.59904 122.75195 21 ft 22 kts 144°
2026-04-22 08:42 11.59756 122.75301 21 ft 27 kts 148°
2026-04-22 08:43 11.59583 122.75428 21 ft 32 kts 146°
2026-04-22 08:43 11.59380 122.75570 21 ft 33 kts 145°
2026-04-22 08:43 11.59222 122.75674 21 ft 23 kts 148°
2026-04-22 08:43 11.59103 122.75748 21 ft 10 kts 148°
2026-04-22 08:44 11.59106 122.75761 21 ft 3 kts 12°
2026-04-22 08:44 11.59126 122.75751 21 ft 3 kts 326°
2026-04-22 08:44 11.59130 122.75748 21 ft 0 kts 326°
2026-04-22 08:44 11.59224 122.75681 21 ft 45 kts 325°
2026-04-22 08:45 11.59747 122.75307 21 ft 131 kts 324°
2026-04-22 08:45 11.60682 122.74631 254 ft 179 kts 326°
2026-04-22 08:45 11.61699 122.73801 1092 ft 188 kts 321°
2026-04-22 08:45 11.62632 122.72890 2095 ft 182 kts 322°
2026-04-22 08:46 11.63813 122.72338 2597 ft 189 kts
2026-04-22 08:46 11.65175 122.72360 3222 ft 198 kts
2026-04-22 08:46 11.66614 122.72175 3777 ft 218 kts 347°
2026-04-22 08:46 11.68088 122.71518 4498 ft 232 kts 333°
2026-04-22 08:47 11.69471 122.70624 5443 ft 232 kts 328°
2026-04-22 08:47 11.70809 122.69679 6287 ft 235 kts 327°
2026-04-22 08:47 11.72180 122.68703 7183 ft 234 kts 326°
2026-04-22 08:47 11.73534 122.67748 8038 ft 235 kts 326°
2026-04-22 08:48 11.74906 122.66785 8853 ft 236 kts 326°
2026-04-22 08:48 11.76252 122.65844 9639 ft 237 kts 325°
2026-04-22 08:48 11.77668 122.64853 10211 ft 250 kts 324°
2026-04-22 08:48 11.79153 122.63813 10711 ft 264 kts 325°
2026-04-22 08:49 11.80741 122.62702 11200 ft 280 kts 324°
2026-04-22 08:49 11.82397 122.61545 11675 ft 294 kts 324°
2026-04-22 08:49 11.84136 122.60329 12259 ft 304 kts 324°
2026-04-22 08:49 11.85901 122.59096 12958 ft 309 kts 324°
2026-04-22 08:50 11.87728 122.57820 13726 ft 312 kts 324°
2026-04-22 08:50 11.89563 122.56535 14425 ft 316 kts 324°
2026-04-22 08:50 11.91409 122.55244 15170 ft 318 kts 324°
2026-04-22 08:50 11.93308 122.53916 15827 ft 323 kts 325°
2026-04-22 08:51 11.95203 122.52591 16475 ft 328 kts 325°
2026-04-22 08:51 11.97169 122.51216 16790 ft 344 kts 325°
2026-04-22 08:51 11.99244 122.49764 17131 ft 359 kts 326°
2026-04-22 08:51 12.01328 122.48307 17724 ft 364 kts 326°
2026-04-22 08:52 12.03459 122.46818 18502 ft 362 kts 326°
2026-04-22 08:52 12.05567 122.45345 19095 ft 366 kts 326°
2026-04-22 08:52 12.07734 122.43832 19714 ft 368 kts 326°
2026-04-22 08:52 12.09882 122.42331 20256 ft 373 kts 326°
2026-04-22 08:53 12.12086 122.40791 20839 ft 375 kts 326°
2026-04-22 08:53 12.14302 122.39243 21376 ft 379 kts 326°
2026-04-22 08:53 12.16523 122.37690 21959 ft 380 kts 326°
2026-04-22 08:53 12.18782 122.36111 22474 ft 384 kts 326°
2026-04-22 08:54 12.21046 122.34527 23002 ft 387 kts 325°
2026-04-22 08:54 12.23284 122.32962 23491 ft 391 kts 325°
2026-04-22 08:54 12.25551 122.31377 23991 ft 394 kts 325°
2026-04-22 08:54 12.27886 122.29743 24457 ft 399 kts 325°
2026-04-22 08:55 12.30214 122.28114 24930 ft 402 kts 325°
2026-04-22 08:55 12.32537 122.26489 25605 ft 400 kts 325°
2026-04-22 08:55 12.34872 122.24854 25810 ft 405 kts 325°
2026-04-22 08:55 12.35641 122.24316 25817 ft 404 kts 325°
2026-04-22 08:56 12.39529 122.21601 25831 ft 396 kts 325°
2026-04-22 08:56 12.41864 122.19978 25836 ft 397 kts 325°
2026-04-22 08:56 12.44188 122.18365 25839 ft 397 kts 325°
2026-04-22 08:56 12.46481 122.16773 25844 ft 397 kts 325°
2026-04-22 08:57 12.48809 122.15157 25844 ft 396 kts 325°
2026-04-22 08:57 12.51088 122.13575 25843 ft 396 kts 325°
2026-04-22 08:57 12.53412 122.11961 25844 ft 396 kts 325°
2026-04-22 08:57 12.55686 122.10381 25843 ft 396 kts 325°
2026-04-22 08:58 12.57989 122.08781 25840 ft 396 kts 325°
2026-04-22 08:58 12.60277 122.07192 25839 ft 396 kts 325°
2026-04-22 08:58 12.62579 122.05591 25840 ft 397 kts 324°
2026-04-22 08:58 12.64870 122.03998 25838 ft 396 kts 324°
2026-04-22 08:59 12.67197 122.02379 25838 ft 396 kts 324°
2026-04-22 08:59 12.69514 122.00766 25834 ft 397 kts 325°
2026-04-22 08:59 12.71831 121.99153 25836 ft 393 kts 325°
2026-04-22 08:59 12.74103 121.97572 25838 ft 390 kts 325°
2026-04-22 09:00 12.76384 121.95983 25837 ft 391 kts 325°
2026-04-22 09:00 12.78669 121.94391 25841 ft 392 kts 325°
2026-04-22 09:00 12.80944 121.92806 25841 ft 391 kts 325°
2026-04-22 09:00 12.83222 121.91219 25842 ft 391 kts 324°
2026-04-22 09:01 12.85521 121.89616 25836 ft 393 kts 324°
2026-04-22 09:01 12.87827 121.88007 25834 ft 406 kts 324°
2026-04-22 09:01 12.90240 121.86324 25828 ft 419 kts 324°
2026-04-22 09:01 12.92705 121.84603 25826 ft 429 kts 324°
2026-04-22 09:02 12.95240 121.82835 25825 ft 430 kts 324°
2026-04-22 09:02 12.97715 121.81109 25831 ft 428 kts 324°
2026-04-22 09:02 13.00235 121.79353 25834 ft 428 kts 324°
2026-04-22 09:02 13.02732 121.77611 25836 ft 429 kts 324°
2026-04-22 09:03 13.05226 121.75870 25840 ft 428 kts 324°
2026-04-22 09:03 13.07718 121.74129 25844 ft 428 kts 324°
2026-04-22 09:03 13.10227 121.72377 25847 ft 428 kts 324°
2026-04-22 09:03 13.12747 121.70616 25849 ft 428 kts 324°
2026-04-22 09:04 13.15245 121.68870 25849 ft 429 kts 324°
2026-04-22 09:04 13.17735 121.67130 25849 ft 428 kts 324°
2026-04-22 09:04 13.20257 121.65367 25787 ft 426 kts 324°
2026-04-22 09:04 13.22728 121.63640 25329 ft 422 kts 324°
2026-04-22 09:05 13.25182 121.61923 24487 ft 426 kts 324°
2026-04-22 09:05 13.27659 121.60189 23868 ft 424 kts 324°
2026-04-22 09:05 13.30133 121.58457 23351 ft 419 kts 324°
2026-04-22 09:05 13.32580 121.56744 22781 ft 415 kts 324°
2026-04-22 09:06 13.34987 121.55057 22254 ft 411 kts 324°
2026-04-22 09:06 13.37401 121.53367 21736 ft 407 kts 324°
2026-04-22 09:06 13.39775 121.51703 21168 ft 405 kts 324°
2026-04-22 09:06 13.42135 121.50048 20634 ft 402 kts 324°
2026-04-22 09:07 13.44492 121.48394 20092 ft 399 kts 325°
2026-04-22 09:07 13.46828 121.46755 19566 ft 396 kts 325°
2026-04-22 09:07 13.49115 121.45149 19058 ft 392 kts 325°
2026-04-22 09:07 13.51363 121.43572 18562 ft 389 kts 326°
2026-04-22 09:08 13.53621 121.41985 18001 ft 387 kts 326°
2026-04-22 09:08 13.55867 121.40407 17713 ft 376 kts 326°
2026-04-22 09:08 13.58000 121.38899 17563 ft 362 kts 326°
2026-04-22 09:08 13.60039 121.37409 17449 ft 349 kts 325°
2026-04-22 09:09 13.62016 121.35927 17341 ft 336 kts 324°
2026-04-22 09:09 13.63926 121.34482 17098 ft 329 kts 324°
2026-04-22 09:09 13.65795 121.33073 16688 ft 327 kts 324°
2026-04-22 09:09 13.67677 121.31662 16287 ft 326 kts 324°
2026-04-22 09:10 13.69512 121.30292 15900 ft 323 kts 324°
2026-04-22 09:10 13.71358 121.28915 15483 ft 322 kts 324°
2026-04-22 09:10 13.73204 121.27538 14845 ft 320 kts 324°
2026-04-22 09:10 13.75032 121.26175 14231 ft 317 kts 324°
2026-04-22 09:11 13.76853 121.24816 13641 ft 314 kts 324°
2026-04-22 09:11 13.78628 121.23492 13031 ft 310 kts 324°
2026-04-22 09:11 13.80389 121.22178 12423 ft 308 kts 324°
2026-04-22 09:11 13.82155 121.20861 11814 ft 306 kts 325°
2026-04-22 09:12 13.83913 121.19548 11200 ft 304 kts 325°
2026-04-22 09:12 13.85650 121.18251 10577 ft 302 kts 325°
2026-04-22 09:12 13.87364 121.16971 9969 ft 299 kts 325°
2026-04-22 09:12 13.89074 121.15694 9360 ft 297 kts 326°
2026-04-22 09:13 13.90769 121.14427 8784 ft 294 kts 325°
2026-04-22 09:13 13.92443 121.13176 8229 ft 291 kts 325°
2026-04-22 09:13 13.94097 121.11940 7672 ft 288 kts 325°
2026-04-22 09:13 13.95723 121.10725 7123 ft 285 kts 325°
2026-04-22 09:14 13.97347 121.09512 6560 ft 282 kts 326°
2026-04-22 09:14 13.98985 121.08343 6007 ft 278 kts 328°
2026-04-22 09:14 14.00621 121.07228 5401 ft 278 kts 328°
2026-04-22 09:14 14.02250 121.06123 4917 ft 275 kts 328°
2026-04-22 09:15 14.03894 121.04996 4868 ft 277 kts 327°
2026-04-22 09:15 14.05508 121.03879 4851 ft 276 kts 327°
2026-04-22 09:15 14.07148 121.02741 4853 ft 278 kts 327°
2026-04-22 09:15 14.08775 121.01608 4854 ft 277 kts 327°
2026-04-22 09:16 14.10392 121.00481 4853 ft 277 kts 327°
2026-04-22 09:16 14.12019 120.99348 4854 ft 277 kts 327°
2026-04-22 09:16 14.13649 120.98213 4852 ft 277 kts 327°
2026-04-22 09:16 14.15279 120.97078 4859 ft 277 kts 327°
2026-04-22 09:17 14.16909 120.95943 4853 ft 277 kts 327°
2026-04-22 09:17 14.18510 120.94827 4753 ft 272 kts 328°
2026-04-22 09:17 14.20111 120.93712 4342 ft 275 kts 328°
2026-04-22 09:17 14.21746 120.92574 3941 ft 276 kts 327°
2026-04-22 09:18 14.23353 120.91456 3555 ft 278 kts 327°
2026-04-22 09:18 14.24986 120.90318 3248 ft 275 kts 327°
2026-04-22 09:18 14.26553 120.89223 3154 ft 264 kts 328°
2026-04-22 09:18 14.28064 120.88193 3002 ft 249 kts 331°
2026-04-22 09:19 14.29534 120.87315 3000 ft 233 kts 334°
2026-04-22 09:19 14.30951 120.86523 2999 ft 226 kts 334°
2026-04-22 09:19 14.32358 120.85732 3020 ft 224 kts 334°
2026-04-22 09:19 14.33738 120.84943 2993 ft 222 kts 333°
2026-04-22 09:20 14.35113 120.84148 2996 ft 222 kts 333°
2026-04-22 09:20 14.36488 120.83354 2992 ft 222 kts 334°
2026-04-22 09:20 14.37933 120.82753 2987 ft 217 kts 354°
2026-04-22 09:20 14.39413 120.82909 2992 ft 211 kts 27°
2026-04-22 09:21 14.40606 120.83772 2993 ft 208 kts 49°
2026-04-22 09:21 14.41471 120.84963 2989 ft 206 kts 60°
2026-04-22 09:21 14.42192 120.86285 2936 ft 208 kts 62°
2026-04-22 09:21 14.42864 120.87608 2753 ft 204 kts 64°
2026-04-22 09:22 14.43529 120.88871 2456 ft 193 kts 62°
2026-04-22 09:22 14.44202 120.90064 2169 ft 192 kts 62°
2026-04-22 09:22 14.44881 120.91261 1933 ft 184 kts 62°
2026-04-22 09:22 14.45515 120.92400 1702 ft 180 kts 63°
2026-04-22 09:23 14.46135 120.93512 1458 ft 173 kts 63°
2026-04-22 09:23 14.46727 120.94566 1281 ft 164 kts 62°
2026-04-22 09:23 14.47294 120.95580 1032 ft 157 kts 63°
2026-04-22 09:23 14.47851 120.96585 866 ft 160 kts 62°
2026-04-22 09:24 14.48396 120.97547 628 ft 149 kts 61°
2026-04-22 09:24 14.48924 120.98495 457 ft 148 kts 62°
2026-04-22 09:24 14.49458 120.99453 291 ft 154 kts 62°
2026-04-22 09:24 14.50020 121.00427 115 ft 155 kts 61°
2026-04-22 09:25 14.50539 121.01363 81 ft 125 kts 62°
2026-04-22 09:25 14.50810 121.01857 81 ft 35 kts 60°
2026-04-22 09:25 14.50882 121.01984 81 ft 17 kts 53°
2026-04-22 09:25 14.50990 121.01968 81 ft 19 kts 315°
2026-04-22 09:26 14.50962 121.01868 81 ft 16 kts 259°
2026-04-22 09:26 14.50930 121.01755 81 ft 17 kts 293°
2026-04-22 09:26 14.50932 121.01653 81 ft 17 kts 241°
2026-04-22 09:26 14.50867 121.01527 81 ft 16 kts 241°
2026-04-22 09:27 14.50843 121.01457 81 ft 9 kts 304°
2026-04-22 09:27 14.50875 121.01438 81 ft 2 kts 324°
2026-04-22 09:27 14.50893 121.01426 81 ft 0 kts 327°
2026-04-22 09:27 14.50899 121.01422 81 ft 2 kts 330°
2026-04-22 09:28 14.50912 121.01415 81 ft 1 kts 331°
2026-04-22 09:28 14.50920 121.01411 81 ft 1 kts 331°
2026-04-22 09:28 14.50924 121.01408 81 ft 0 kts 331°